Time,TemperatureF,DewpointF,PressureIn,WindDirection,WindDirectionDegrees,WindSpeedMPH,WindSpeedGustMPH,Humidity,HourlyPrecipIn,Conditions,Clouds,dailyrainin,SoftwareType,DateUTC
2013-02-04 00:05:00,24.2,16.0,29.86,West,274,9.0,-999.0,72,-99.99,,,0.00,weatherlink.com 1.10,2013-02-04 05:05:00,
2013-02-04 00:21:00,23.4,17.0,29.86,NW,304,6.0,-999.0,77,-99.99,,,0.00,weatherlink.com 1.10,2013-02-04 05:21:00,
2013-02-04 00:36:00,23.1,16.0,29.87,West,281,9.0,-999.0,75,-99.99,,,0.00,weatherlink.com 1.10,2013-02-04 05:36:00,
2013-02-04 00:51:00,22.9,16.0,29.87,WNW,291,5.0,-999.0,74,-99.99,,,0.00,weatherlink.com 1.10,2013-02-04 05:51:00,
2013-02-04 01:07:00,22.9,15.0,29.88,WNW,286,11.0,-999.0,73,-99.99,,,0.00,weatherlink.com 1.10,2013-02-04 06:07:00,
2013-02-04 01:22:00,22.6,15.0,29.88,West,278,7.0,-999.0,72,-99.99,,,0.00,weatherlink.com 1.10,2013-02-04 06:22:00,
2013-02-04 01:37:00,22.1,14.0,29.88,West,271,8.0,-999.0,71,-99.99,,,0.00,weatherlink.com 1.10,2013-02-04 06:37:00,
2013-02-04 01:52:00,21.7,14.0,29.89,WNW,286,8.0,-999.0,71,-99.99,,,0.00,weatherlink.com 1.10,2013-02-04 06:52:00,
2013-02-04 02:08:00,21.5,13.0,29.90,NW,313,13.0,-999.0,69,-99.99,,,0.00,weatherlink.com 1.10,2013-02-04 07:08:00,
2013-02-04 02:23:00,21.2,12.0,29.90,West,272,10.0,-999.0,67,-99.99,,,0.00,weatherlink.com 1.10,2013-02-04 07:23:00,
2013-02-04 02:38:00,20.8,11.0,29.90,WNW,284,10.0,-999.0,67,-99.99,,,0.00,weatherlink.com 1.10,2013-02-04 07:38:00,
2013-02-04 02:55:00,20.6,11.0,29.91,West,261,10.0,-999.0,66,-99.99,,,0.00,weatherlink.com 1.10,2013-02-04 07:55:00,
2013-02-04 03:10:00,20.3,11.0,29.91,WSW,257,9.0,-999.0,66,-99.99,,,0.00,weatherlink.com 1.10,2013-02-04 08:10:00,
2013-02-04 03:25:00,20.1,11.0,29.91,West,265,8.0,-999.0,67,-99.99,,,0.00,weatherlink.com 1.10,2013-02-04 08:25:00,
2013-02-04 03:40:00,19.8,10.0,29.91,WNW,290,9.0,-999.0,67,-99.99,,,0.00,weatherlink.com 1.10,2013-02-04 08:40:00,
2013-02-04 03:55:00,19.7,11.0,29.92,West,269,10.0,-999.0,68,-99.99,,,0.00,weatherlink.com 1.10,2013-02-04 08:55:00,
2013-02-04 04:10:00,19.6,11.0,29.93,WNW,293,8.0,-999.0,68,-99.99,,,0.00,weatherlink.com 1.10,2013-02-04 09:10:00,
2013-02-04 04:25:00,19.4,10.0,29.93,WNW,287,5.0,-999.0,68,-99.99,,,0.00,weatherlink.com 1.10,2013-02-04 09:25:00,
2013-02-04 04:43:00,19.5,11.0,29.94,West,273,6.0,-999.0,68,-99.99,,,0.00,weatherlink.com 1.10,2013-02-04 09:43:00,
2013-02-04 04:56:00,19.7,11.0,29.94,WNW,286,9.0,-999.0,68,-99.99,,,0.00,weatherlink.com 1.10,2013-02-04 09:56:00,
2013-02-04 05:12:00,19.8,11.0,29.95,WNW,286,6.0,-999.0,68,-99.99,,,0.00,weatherlink.com 1.10,2013-02-04 10:12:00,
2013-02-04 05:27:00,19.7,11.0,29.95,West,265,4.0,-999.0,69,-99.99,,,0.00,weatherlink.com 1.10,2013-02-04 10:27:00,
2013-02-04 05:42:00,19.5,11.0,29.95,West,281,7.0,-999.0,69,-99.99,,,0.00,weatherlink.com 1.10,2013-02-04 10:42:00,
2013-02-04 05:57:00,19.2,11.0,29.96,West,273,6.0,-999.0,70,-99.99,,,0.00,weatherlink.com 1.10,2013-02-04 10:57:00,
2013-02-04 06:12:00,19.1,11.0,29.96,WNW,282,5.0,-999.0,70,-99.99,,,0.00,weatherlink.com 1.10,2013-02-04 11:12:00,
2013-02-04 06:28:00,18.8,11.0,29.96,WNW,290,6.0,-999.0,71,-99.99,,,0.00,weatherlink.com 1.10,2013-02-04 11:28:00,
2013-02-04 06:43:00,18.7,11.0,29.97,WNW,288,3.0,-999.0,71,-99.99,,,0.00,weatherlink.com 1.10,2013-02-04 11:43:00,
2013-02-04 06:58:00,18.6,11.0,29.97,WNW,286,5.0,-999.0,71,-99.99,,,0.00,weatherlink.com 1.10,2013-02-04 11:58:00,
2013-02-04 07:14:00,18.6,11.0,29.97,WSW,257,6.0,-999.0,71,-99.99,,,0.00,weatherlink.com 1.10,2013-02-04 12:14:00,
2013-02-04 07:30:00,18.6,11.0,29.98,WNW,287,6.0,-999.0,71,-99.99,,,0.00,weatherlink.com 1.10,2013-02-04 12:30:00,
2013-02-04 07:45:00,19.0,11.0,29.99,West,281,7.0,-999.0,70,-99.99,,,0.00,weatherlink.com 1.10,2013-02-04 12:45:00,
2013-02-04 08:00:00,19.1,10.0,29.99,WNW,287,6.0,-999.0,69,-99.99,,,0.00,weatherlink.com 1.10,2013-02-04 13:00:00,
2013-02-04 08:15:00,19.5,11.0,30.00,WNW,282,5.0,-999.0,68,-99.99,,,0.00,weatherlink.com 1.10,2013-02-04 13:15:00,
2013-02-04 08:30:00,19.9,11.0,30.00,WSW,253,4.0,-999.0,67,-99.99,,,0.00,weatherlink.com 1.10,2013-02-04 13:30:00,
2013-02-04 08:45:00,20.3,11.0,30.01,WNW,287,13.0,-999.0,66,-99.99,,,0.00,weatherlink.com 1.10,2013-02-04 13:45:00,
2013-02-04 09:00:00,20.9,11.0,30.02,West,261,5.0,-999.0,66,-99.99,,,0.00,weatherlink.com 1.10,2013-02-04 14:00:00,
2013-02-04 09:15:00,21.0,11.0,30.02,South,180,5.0,-999.0,65,-99.99,,,0.00,weatherlink.com 1.10,2013-02-04 14:15:00,
2013-02-04 09:31:00,21.5,11.0,30.01,WNW,296,11.0,-999.0,65,-99.99,,,0.00,weatherlink.com 1.10,2013-02-04 14:31:00,
2013-02-04 09:46:00,21.5,11.0,30.01,West,269,8.0,-999.0,64,-99.99,,,0.00,weatherlink.com 1.10,2013-02-04 14:46:00,
2013-02-04 10:01:00,21.8,11.0,30.01,West,269,4.0,-999.0,63,-99.99,,,0.00,weatherlink.com 1.10,2013-02-04 15:01:00,
2013-02-04 10:17:00,21.7,10.0,30.02,West,273,5.0,-999.0,62,-99.99,,,0.00,weatherlink.com 1.10,2013-02-04 15:17:00,
2013-02-04 10:32:00,22.5,11.0,30.02,West,265,5.0,-999.0,62,-99.99,,,0.00,weatherlink.com 1.10,2013-02-04 15:32:00,
2013-02-04 10:48:00,22.6,11.0,30.02,WNW,286,6.0,-999.0,61,-99.99,,,0.00,weatherlink.com 1.10,2013-02-04 15:48:00,
2013-02-04 11:07:00,23.7,11.0,30.01,WSW,255,10.0,-999.0,59,-99.99,,,0.00,weatherlink.com 1.10,2013-02-04 16:07:00,
2013-02-04 11:18:00,23.7,11.0,30.01,West,262,8.0,-999.0,58,-99.99,,,0.00,weatherlink.com 1.10,2013-02-04 16:18:00,
2013-02-04 11:33:00,23.6,10.0,30.01,WNW,285,7.0,-999.0,56,-99.99,,,0.00,weatherlink.com 1.10,2013-02-04 16:33:00,
2013-02-04 11:48:00,24.2,10.0,30.00,NW,320,14.0,-999.0,55,-99.99,,,0.00,weatherlink.com 1.10,2013-02-04 16:48:00,
2013-02-04 12:03:00,24.0,10.0,29.99,WSW,251,5.0,-999.0,56,-99.99,,,0.00,weatherlink.com 1.10,2013-02-04 17:03:00,
2013-02-04 12:18:00,24.2,9.0,30.00,WNW,287,7.0,-999.0,53,-99.99,,,0.00,weatherlink.com 1.10,2013-02-04 17:18:00,
2013-02-04 12:35:00,23.1,9.0,29.99,West,273,9.0,-999.0,55,-99.99,,,0.00,weatherlink.com 1.10,2013-02-04 17:35:00,
2013-02-04 12:50:00,23.4,9.0,29.99,WNW,296,9.0,-999.0,55,-99.99,,,0.00,weatherlink.com 1.10,2013-02-04 17:50:00,
2013-02-04 13:05:00,24.0,11.0,29.98,West,276,5.0,-999.0,57,-99.99,,,0.00,weatherlink.com 1.10,2013-02-04 18:05:00,
2013-02-04 13:21:00,23.9,10.0,29.97,West,273,12.0,-999.0,55,-99.99,,,0.00,weatherlink.com 1.10,2013-02-04 18:21:00,
2013-02-04 13:35:00,24.3,10.0,29.97,WNW,283,9.0,-999.0,54,-99.99,,,0.00,weatherlink.com 1.10,2013-02-04 18:35:00,
2013-02-04 13:51:00,24.7,9.0,29.97,West,280,6.0,-999.0,52,-99.99,,,0.00,weatherlink.com 1.10,2013-02-04 18:51:00,
2013-02-04 14:05:00,24.9,10.0,29.97,WNW,286,4.0,-999.0,53,-99.99,,,0.00,weatherlink.com 1.10,2013-02-04 19:05:00,
2013-02-04 14:21:00,24.8,9.0,29.97,West,276,6.0,-999.0,52,-99.99,,,0.00,weatherlink.com 1.10,2013-02-04 19:21:00,
2013-02-04 14:36:00,25.4,10.0,29.96,West,278,5.0,-999.0,52,-99.99,,,0.00,weatherlink.com 1.10,2013-02-04 19:36:00,
2013-02-04 14:52:00,25.2,9.0,29.96,WNW,284,7.0,-999.0,51,-99.99,,,0.00,weatherlink.com 1.10,2013-02-04 19:52:00,
2013-02-04 15:07:00,25.3,10.0,29.96,West,265,6.0,-999.0,52,-99.99,,,0.00,weatherlink.com 1.10,2013-02-04 20:07:00,
2013-02-04 15:22:00,25.5,10.0,29.96,WNW,296,7.0,-999.0,51,-99.99,,,0.00,weatherlink.com 1.10,2013-02-04 20:22:00,
2013-02-04 15:38:00,25.6,10.0,29.96,West,275,4.0,-999.0,52,-99.99,,,0.00,weatherlink.com 1.10,2013-02-04 20:38:00,
2013-02-04 15:52:00,26.2,11.0,29.97,WNW,286,6.0,-999.0,52,-99.99,,,0.00,weatherlink.com 1.10,2013-02-04 20:52:00,
2013-02-04 16:08:00,25.4,10.0,29.97,West,271,4.0,-999.0,53,-99.99,,,0.00,weatherlink.com 1.10,2013-02-04 21:08:00,
2013-02-04 16:26:00,25.7,11.0,29.97,West,277,5.0,-999.0,53,-99.99,,,0.00,weatherlink.com 1.10,2013-02-04 21:26:00,
2013-02-04 16:38:00,25.6,11.0,29.97,West,263,3.0,-999.0,54,-99.99,,,0.00,weatherlink.com 1.10,2013-02-04 21:38:00,
2013-02-04 16:53:00,25.4,12.0,29.97,West,263,4.0,-999.0,56,-99.99,,,0.00,weatherlink.com 1.10,2013-02-04 21:53:00,
2013-02-04 17:08:00,25.2,11.0,29.97,West,266,3.0,-999.0,55,-99.99,,,0.00,weatherlink.com 1.10,2013-02-04 22:08:00,
2013-02-04 17:25:00,24.8,11.0,29.97,West,267,4.0,-999.0,57,-99.99,,,0.00,weatherlink.com 1.10,2013-02-04 22:25:00,
2013-02-04 17:40:00,24.4,11.0,29.97,SW,235,2.0,-999.0,58,-99.99,,,0.00,weatherlink.com 1.10,2013-02-04 22:40:00,
2013-02-04 17:55:00,24.0,12.0,29.98,West,269,2.0,-999.0,60,-99.99,,,0.00,weatherlink.com 1.10,2013-02-04 22:55:00,
2013-02-04 18:10:00,23.6,11.0,29.98,West,269,1.0,-999.0,60,-99.99,,,0.00,weatherlink.com 1.10,2013-02-04 23:10:00,
2013-02-04 18:25:00,23.4,12.0,29.99,West,269,2.0,-999.0,61,-99.99,,,0.00,weatherlink.com 1.10,2013-02-04 23:25:00,
2013-02-04 18:40:00,23.7,12.0,29.98,West,269,3.0,-999.0,61,-99.99,,,0.00,weatherlink.com 1.10,2013-02-04 23:40:00,
2013-02-04 18:55:00,23.8,12.0,29.98,West,269,0.0,-999.0,61,-99.99,,,0.00,weatherlink.com 1.10,2013-02-04 23:55:00,
2013-02-04 19:12:00,23.1,12.0,29.98,West,269,3.0,-999.0,63,-99.99,,,0.00,weatherlink.com 1.10,2013-02-05 00:12:00,
2013-02-04 19:26:00,23.2,12.0,29.98,West,269,0.0,-999.0,62,-99.99,,,0.00,weatherlink.com 1.10,2013-02-05 00:26:00,
2013-02-04 19:41:00,23.1,12.0,29.98,West,269,0.0,-999.0,62,-99.99,,,0.00,weatherlink.com 1.10,2013-02-05 00:41:00,
2013-02-04 19:56:00,23.0,12.0,29.98,West,269,0.0,-999.0,62,-99.99,,,0.00,weatherlink.com 1.10,2013-02-05 00:56:00,
2013-02-04 20:12:00,23.0,12.0,29.98,West,269,0.0,-999.0,63,-99.99,,,0.00,weatherlink.com 1.10,2013-02-05 01:12:00,
2013-02-04 20:27:00,23.1,12.0,29.98,West,269,0.0,-999.0,62,-99.99,,,0.00,weatherlink.com 1.10,2013-02-05 01:27:00,
2013-02-04 20:42:00,23.3,12.0,29.98,West,269,0.0,-999.0,63,-99.99,,,0.00,weatherlink.com 1.10,2013-02-05 01:42:00,
2013-02-04 20:58:00,23.2,13.0,29.98,West,269,0.0,-999.0,66,-99.99,,,0.00,weatherlink.com 1.10,2013-02-05 01:58:00,
2013-02-04 21:13:00,23.2,13.0,29.98,West,269,0.0,-999.0,64,-99.99,,,0.00,weatherlink.com 1.10,2013-02-05 02:13:00,
2013-02-04 21:28:00,23.2,13.0,29.98,West,269,0.0,-999.0,65,-99.99,,,0.00,weatherlink.com 1.10,2013-02-05 02:28:00,
2013-02-04 21:46:00,23.2,13.0,29.98,West,269,0.0,-999.0,65,-99.99,,,0.00,weatherlink.com 1.10,2013-02-05 02:46:00,
2013-02-04 21:58:00,23.4,13.0,29.98,West,269,0.0,-999.0,65,-99.99,,,0.00,weatherlink.com 1.10,2013-02-05 02:58:00,
2013-02-04 22:15:00,23.6,13.0,29.98,West,269,0.0,-999.0,64,-99.99,,,0.00,weatherlink.com 1.10,2013-02-05 03:15:00,
2013-02-04 22:30:00,23.7,13.0,29.97,West,269,1.0,-999.0,63,-99.99,,,0.00,weatherlink.com 1.10,2013-02-05 03:30:00,
2013-02-04 22:45:00,23.7,14.0,29.97,West,269,0.0,-999.0,66,-99.99,,,0.00,weatherlink.com 1.10,2013-02-05 03:45:00,
2013-02-04 23:00:00,23.6,13.0,29.96,West,269,0.0,-999.0,65,-99.99,,,0.00,weatherlink.com 1.10,2013-02-05 04:00:00,
2013-02-04 23:15:00,23.7,13.0,29.96,West,269,0.0,-999.0,65,-99.99,,,0.00,weatherlink.com 1.10,2013-02-05 04:15:00,
2013-02-04 23:30:00,23.7,14.0,29.96,West,269,0.0,-999.0,67,-99.99,,,0.00,weatherlink.com 1.10,2013-02-05 04:30:00,
2013-02-04 23:45:00,23.7,15.0,29.96,West,269,1.0,-999.0,68,-99.99,,,0.00,weatherlink.com 1.10,2013-02-05 04:45:00,